#timestamp,LO_Frequency,Hit,StdDev 
1571065215.1,286047002.6,N
1571065235.9,286047002.1,N
1571065255.7,286047003.5,N
1571065275.6,286047002.5,N
1571065295.4,286047004.1,N
1571065315.2,286047004.1,N
1571065335.1,286047004.3,N
1571065336.0,286047004.3,N
1571065355.8,286047003.7,N
1571065375.6,286047004.3,N
1571065395.5,286047001.7,N
1571065415.3,286047001.5,N
1571065435.2,286047000.2,N
1571065455.9,286046998.6,N
1571065475.7,286046998.2,N
1571065495.6,286046998.4,N
1571065515.4,286046997.2,N
1571065535.2,286046996.9,N
1571065555.1,286046999.2,N
1571065556.0,286046999.2,N
1571065575.8,286046996.6,N
1571065595.7,286046999.3,N
1571065615.5,286047000.2,N
1571065635.3,286047002.8,N
1571065655.2,286047002.7,N
1571065675.0,286047002.5,N
1571065675.9,286047002.5,N
1571065695.8,286047004.2,N
1571065715.6,286047003.9,N
1571065735.4,286047002.4,N
1571065755.3,286047000.7,N
1571065775.1,286046996.8,N
1571065795.9,286046998.8,N
1571065815.7,286046998.4,N
1571065835.5,286046998.8,N
1571065855.4,286047000.3,N
1571065875.2,286047000.5,N
1571065895.0,286047001.0,N
1571065895.9,286047001.0,N
1571065915.8,286046996.6,N
1571065935.6,286047000.7,N
1571065955.5,286046999.8,N
1571065975.3,286046999.9,N
1571065995.1,286047000.7,N
1571066015.9,286046998.4,N
1571066035.7,286046999.9,N
1571066055.5,286047002.0,N
1571066075.4,286047002.1,N
1571066095.2,286047002.5,N
1571066115.1,286047004.4,N
1571066116.0,286047004.4,N
1571066135.8,286047003.8,N
1571066155.6,286047005.6,N
1571066175.5,286047005.7,N
1571066195.3,286047005.4,N
1571066215.1,286047004.6,N
1571066235.9,286047006.1,N
1571066255.7,286047008.1,Y
1571066275.6,286047007.6,P
1571066295.4,286047008.5,N
1571066315.2,286047007.9,N
1571066335.1,286047010.1,Y
1571066336.0,286047010.1,P
1571066355.8,286047004.0,N
1571066375.7,286047003.1,N
1571066395.5,286047006.0,N
1571066415.3,286047004.6,N
1571066435.2,286047003.0,N
1571066455.9,286047003.4,N
1571066475.7,286047004.0,N
1571066495.6,286047006.0,N
1571066515.4,286047005.3,N
1571066535.2,286047003.3,N
1571066555.1,286047006.8,Y
1571066556.0,286047006.8,P
1571066575.8,286047001.9,N
1571066595.7,286047001.6,N
1571066615.5,286047001.3,N
1571066635.3,286047003.2,N
1571066655.2,286047004.8,N
1571066675.0,286047006.5,Y
1571066675.9,286047006.5,P
1571066695.8,286047006.4,P
1571066715.6,286047008.3,P
1571066735.4,286047008.2,Y
1571066755.3,286047005.3,P
1571066775.1,286047005.1,P
1571066795.8,286047004.5,P
1571066815.7,286047006.3,Y
1571066835.5,286046999.7,P
1571066855.4,286047000.6,N
1571066875.2,286047001.0,N
1571066895.0,286047000.9,N
1571066895.9,286047000.9,N
1571066915.8,286047000.9,N
1571066935.6,286047000.2,N
1571066955.5,286047002.5,N
1571066975.3,286047002.1,N
1571066995.1,286047001.8,N
1571067015.9,286047002.1,N
1571067035.7,286046998.3,N
1571067055.5,286047000.4,N
1571067075.4,286046998.7,N
1571067095.2,286046998.3,N
1571067115.0,286046998.6,N
1571067116.0,286046998.6,N
1571067135.8,286046998.2,N
1571067155.6,286046999.6,N
1571067175.5,286046998.5,N
1571067195.3,286046998.4,N
1571067215.1,286046998.7,N
1571067235.9,286046998.9,N
1571067255.7,286046999.7,N
1571067275.6,286047002.5,N
1571067295.4,286047001.7,N
1571067315.2,286047001.4,N
1571067335.1,286047002.6,N
1571067336.0,286047002.6,N
1571067355.8,286047000.6,N
1571067375.6,286046999.8,N
1571067395.5,286047002.7,N
1571067415.3,286047001.6,N
1571067435.2,286047004.3,N
1571067455.9,286047002.1,N
1571067475.7,286046999.7,N
1571067495.6,286047000.6,N
1571067515.4,286046999.5,N
1571067535.2,286047002.4,N
1571067555.1,286047002.5,N
1571067556.0,286047002.5,N
1571067575.8,286047000.3,N
1571067595.7,286047000.7,N
1571067615.5,286046999.0,N
1571067635.3,286046996.7,N
1571067655.2,286046999.3,N
1571067675.0,286047000.2,N
1571067675.9,286047000.2,N
1571067695.7,286047000.3,N
1571067715.6,286047001.3,N
1571067735.4,286047003.8,N
1571067755.3,286047005.1,Y
1571067775.1,286047006.3,P
1571067776.0,286047006.3,N
1571067795.8,286047005.8,N
1571067815.7,286047005.6,N
1571067835.5,286047003.6,N
1571067855.4,286047005.7,N
1571067875.2,286047002.9,N
1571067895.0,286047003.4,N
1571067895.9,286047003.4,N
1571067915.8,286047003.1,N
1571067935.6,286047005.8,Y
1571067955.4,286047000.4,P
1571067975.3,286047000.2,N
1571067995.1,286047000.8,N
1571068015.9,286046998.7,N
1571068035.7,286046998.5,N
1571068055.5,286046998.5,N
1571068075.4,286046998.2,N
1571068095.2,286047000.6,N
1571068115.0,286047000.6,N
1571068115.9,286047000.6,N
1571068135.8,286047000.1,N
1571068155.6,286047002.9,N
1571068175.5,286047004.8,N
1571068195.3,286047009.2,Y
1571068215.1,286047006.6,P
1571068235.9,286047006.1,N
1571068255.7,286047006.7,N
1571068275.5,286047006.5,N
1571068295.4,286047007.4,Y
1571068315.2,286047002.8,P
1571068335.1,286047002.6,N
1571068336.0,286047002.6,N
1571068355.8,286047002.8,N
1571068375.6,286047005.2,Y
1571068395.5,286047001.8,P
1571068415.3,286047002.9,P
1571068435.2,286047005.2,P
1571068455.9,286047005.8,Y
1571068475.7,286047001.9,P
1571068495.6,286047002.7,P
1571068515.4,286046998.1,P
1571068535.2,286046999.2,N
1571068555.1,286046995.1,N
1571068556.0,286046995.1,N
1571068575.8,286046997.5,N
1571068595.7,286046997.7,N
1571068615.5,286046997.5,N
1571068635.3,286046997.1,N
1571068655.2,286046998.8,N
1571068675.0,286046998.1,N
1571068675.9,286046998.1,N
1571068695.7,286047000.6,N
1571068715.6,286046998.2,N
1571068735.4,286047000.5,N
1571068755.3,286046998.1,N
1571068775.1,286046998.5,N
1571068776.0,286046998.5,N
1571068795.8,286046999.3,N
